Waarnemingen

Advertentie
Mijn weer
F3, Nederland (6239): temperatuur & dauwpunt: 13.07.2018 21:00:00 - 19.07.2018 21:00:00 (CEST)F3, Nederland (6239): windsnelheid & windstoten: 13.07.2018 21:00:00 - 19.07.2018 21:00:00 (CEST)F3, Nederland (6239): windrichting: 13.07.2018 21:00:00 - 19.07.2018 21:00:00 (CEST)F3, Nederland (6239): luchtdruk: 13.07.2018 21:00:00 - 19.07.2018 21:00:00 (CEST)F3, Nederland (6239): zicht: 13.07.2018 21:00:00 - 19.07.2018 21:00:00 (CEST)
Datum & Tijd tt [°C] td [°C] ff [km/u] ff [kn] fx [km/u] fx [kn] dd ppp [hPa] vv [km]
19.07.2018 21:00:00 18,1 11,9 4 2 4 2 - 1019,0 -
19.07.2018 20:00:00 18,0 11,6 2 1 4 2 - 1019,3 -
19.07.2018 19:00:00 17,8 12,0 4 2 22 12 - 1019,6 -
19.07.2018 18:00:00 17,6 12,0 4 2 7 4 O 1019,8 -
19.07.2018 17:00:00 17,5 11,8 4 2 7 4 - 1020,2 -
19.07.2018 16:00:00 17,2 12,0 5 3 7 4 ONO 1020,4 -
19.07.2018 15:00:00 17,0 12,5 5 3 7 4 NO 1020,4 -
19.07.2018 14:00:00 17,0 12,6 5 3 11 6 NNO 1020,5 -
19.07.2018 13:00:00 16,9 12,4 9 5 11 6 NO 1020,7 -
19.07.2018 12:00:00 16,8 12,8 8 4 32 18 NNO 1020,7 -
19.07.2018 11:00:00 16,7 12,6 8 4 11 6 NNO 1020,6 -
19.07.2018 10:00:00 16,6 12,7 8 4 14 8 - 1020,5 -
19.07.2018 09:00:00 16,7 12,4 5 3 11 6 - 1020,4 -
19.07.2018 08:00:00 17,0 12,6 4 2 11 6 - 1020,4 -
19.07.2018 07:00:00 16,7 12,4 8 4 11 6 - 1020,2 -
19.07.2018 06:00:00 16,7 12,9 5 3 11 6 - 1020,1 -
19.07.2018 05:00:00 16,8 13,1 8 4 14 8 N 1020,1 -
19.07.2018 04:00:00 16,8 13,3 11 6 14 8 N 1020,0 -
19.07.2018 03:00:00 16,9 12,7 13 7 14 8 NNW 1020,0 -
19.07.2018 02:00:00 17,0 12,5 11 6 14 8 - 1020,0 -
19.07.2018 01:00:00 17,0 12,9 5 3 18 10 - 1019,9 -
19.07.2018 00:00:00 16,9 13,1 16 9 18 10 NNW 1019,8 -
18.07.2018 23:00:00 17,1 12,3 16 9 18 10 NW 1019,7 -
18.07.2018 22:00:00 17,3 13,7 15 8 14 8 WNW 1019,5 -
18.07.2018 21:00:00 17,3 13,7 13 7 14 8 WNW 1019,2 -
18.07.2018 20:00:00 17,5 13,2 13 7 18 10 WNW 1019,2 -
18.07.2018 19:00:00 17,8 11,7 15 8 14 8 WNW 1019,0 -
18.07.2018 18:00:00 17,7 14,0 15 8 22 12 W 1019,2 -
18.07.2018 17:00:00 18,5 14,2 16 9 29 16 WZW 1019,1 -
18.07.2018 16:00:00 18,2 13,6 18 10 18 10 ZW 1019,0 -
18.07.2018 15:00:00 18,0 13,8 16 9 18 10 ZW 1018,8 -
18.07.2018 14:00:00 17,8 13,5 15 8 14 8 ZW 1018,8 -
18.07.2018 13:00:00 17,6 13,4 9 5 11 6 ZZW 1018,5 -
18.07.2018 12:00:00 17,4 14,0 8 4 11 6 ZZW 1018,1 -
18.07.2018 11:00:00 17,2 13,7 9 5 11 6 WZW 1018,1 -
18.07.2018 10:00:00 17,1 13,3 13 7 14 8 W 1017,8 -
18.07.2018 09:00:00 17,0 13,3 15 8 18 10 W 1017,5 -
18.07.2018 08:00:00 16,9 13,2 21 11 22 12 W 1017,1 -
18.07.2018 07:00:00 16,7 13,2 22 12 22 12 W 1016,8 -
18.07.2018 06:00:00 16,7 13,1 24 13 25 14 W 1016,5 -
18.07.2018 05:00:00 16,7 13,1 24 13 29 16 W 1016,3 -
18.07.2018 04:00:00 16,7 13,0 28 15 29 16 W 1015,9 -
18.07.2018 03:00:00 16,7 13,3 28 15 29 16 W 1015,8 -
18.07.2018 02:00:00 16,7 13,7 28 15 29 16 WNW 1015,5 -
18.07.2018 01:00:00 17,0 13,6 29 16 32 18 WNW 1015,4 -
18.07.2018 00:00:00 17,0 14,4 34 18 32 18 W 1015,1 -
17.07.2018 23:00:00 17,4 15,2 29 16 29 16 W 1014,8 -
17.07.2018 22:00:00 17,4 15,2 34 18 32 18 W 1014,3 -
17.07.2018 21:00:00 17,9 14,8 31 17 32 18 W 1013,5 -
17.07.2018 20:00:00 18,0 16,3 28 15 32 18 W 1012,7 -
17.07.2018 19:00:00 18,3 16,3 29 16 36 19 W 1012,3 -
17.07.2018 18:00:00 18,7 17,1 34 18 36 19 WZW 1012,0 -
17.07.2018 17:00:00 18,3 16,9 28 15 29 16 ZW 1011,8 -
17.07.2018 16:00:00 18,5 16,4 28 15 29 16 ZZW 1011,9 -
17.07.2018 15:00:00 18,7 16,9 28 15 29 16 Z 1012,0 -
17.07.2018 14:00:00 18,8 16,8 22 12 25 14 ZZO 1011,9 -
17.07.2018 13:00:00 18,9 16,4 28 15 29 16 ZO 1012,0 -
17.07.2018 12:00:00 18,8 16,2 31 17 32 18 ZO 1011,8 -
17.07.2018 11:00:00 18,8 15,9 35 19 36 19 ZO 1011,9 -
17.07.2018 10:00:00 18,8 15,4 28 15 32 18 OZO 1011,8 -
17.07.2018 09:00:00 18,5 16,1 31 17 29 16 OZO 1011,5 -
17.07.2018 08:00:00 18,5 16,0 29 16 29 16 OZO 1011,8 -
17.07.2018 07:00:00 18,5 16,0 28 15 29 16 OZO 1011,9 -
17.07.2018 06:00:00 18,3 15,8 28 15 25 14 OZO 1012,2 -
17.07.2018 05:00:00 18,2 15,8 28 15 25 14 OZO 1012,5 -
17.07.2018 04:00:00 18,1 16,1 24 13 25 14 OZO 1012,8 -
17.07.2018 03:00:00 18,1 15,9 26 14 25 14 OZO 1013,0 -
17.07.2018 02:00:00 18,2 15,6 24 13 22 12 OZO 1013,6 -
17.07.2018 01:00:00 18,3 15,5 24 13 22 12 OZO 1013,8 -
17.07.2018 00:00:00 18,4 15,5 26 14 22 12 OZO 1013,9 -
16.07.2018 23:00:00 18,3 15,9 24 13 22 12 OZO 1013,9 -
16.07.2018 22:00:00 18,4 15,9 24 13 22 12 OZO 1013,8 -
16.07.2018 21:00:00 18,6 15,9 28 15 25 14 OZO 1013,5 -
16.07.2018 20:00:00 18,4 16,4 28 15 25 14 OZO 1013,5 -
16.07.2018 19:00:00 18,4 16,3 28 15 25 14 OZO 1013,7 -
16.07.2018 18:00:00 18,4 16,4 26 14 36 19 OZO 1014,1 -
16.07.2018 17:00:00 18,3 16,2 26 14 25 14 OZO 1014,2 -
16.07.2018 16:00:00 18,3 16,0 26 14 25 14 OZO 1014,5 -
16.07.2018 15:00:00 18,1 15,6 26 14 25 14 OZO 1014,9 -
16.07.2018 14:00:00 17,9 15,5 28 15 29 16 OZO 1015,0 -
16.07.2018 13:00:00 17,8 15,4 29 16 29 16 OZO 1015,3 -
16.07.2018 12:00:00 17,8 15,2 28 15 25 14 OZO 1015,3 -
16.07.2018 11:00:00 17,8 14,8 26 14 25 14 OZO 1015,4 -
16.07.2018 10:00:00 17,8 14,7 26 14 32 18 OZO 1015,4 -
16.07.2018 09:00:00 17,9 14,3 26 14 29 16 ZO 1015,5 -
16.07.2018 08:00:00 18,0 14,4 26 14 25 14 ZO 1015,5 10
16.07.2018 07:00:00 17,9 14,9 24 13 25 14 ZO 1015,5 10
16.07.2018 06:00:00 17,6 15,1 26 14 25 14 ZO 1015,6 10
16.07.2018 05:00:00 17,4 15,3 24 13 25 14 ZO 1015,7 10
16.07.2018 04:00:00 17,7 14,8 28 15 25 14 ZO 1015,8 10
16.07.2018 03:00:00 17,9 14,4 26 14 25 14 ZO 1016,3 10
16.07.2018 02:00:00 17,7 15,9 24 13 22 12 ZO 1016,6 10
16.07.2018 01:00:00 17,7 15,3 24 13 22 12 ZO 1016,7 10
16.07.2018 00:00:00 17,6 15,6 22 12 22 12 ZO 1016,9 10
15.07.2018 23:00:00 17,6 16,1 22 12 22 12 ZO 1016,7 10
15.07.2018 22:00:00 17,7 15,6 18 10 18 10 ZO 1016,5 10
15.07.2018 21:00:00 18,0 15,3 18 10 18 10 ZO 1016,4 10
15.07.2018 20:00:00 19,0 15,3 15 8 14 8 Z 1016,6 10
15.07.2018 19:00:00 19,5 14,5 16 9 18 10 Z 1016,9 10
15.07.2018 18:00:00 19,4 14,8 18 10 18 10 Z 1017,3 10
15.07.2018 17:00:00 19,1 14,7 21 11 22 12 Z 1017,5 10
15.07.2018 16:00:00 18,5 14,9 24 13 25 14 Z 1017,5 10
15.07.2018 15:00:00 17,8 15,2 24 13 25 14 Z 1017,8 10
15.07.2018 14:00:00 17,7 15,1 24 13 25 14 Z 1018,1 10
15.07.2018 13:00:00 17,6 15,0 26 14 25 14 Z 1018,2 10
15.07.2018 12:00:00 17,4 15,0 26 14 25 14 ZZW 1018,3 10
15.07.2018 11:00:00 17,4 14,8 26 14 29 16 Z 1018,1 10
15.07.2018 10:00:00 17,6 14,7 26 14 25 14 Z 1018,1 10
15.07.2018 09:00:00 17,7 14,8 26 14 25 14 Z 1018,0 10
15.07.2018 08:00:00 17,5 14,5 26 14 25 14 Z 1018,0 10
15.07.2018 07:00:00 17,2 14,7 26 14 25 14 Z 1018,0 10
15.07.2018 06:00:00 16,9 14,7 26 14 25 14 Z 1017,9 10
15.07.2018 05:00:00 16,8 15,0 24 13 25 14 Z 1018,0 10
15.07.2018 04:00:00 16,8 14,9 24 13 25 14 ZZW 1018,2 10
15.07.2018 03:00:00 16,8 14,7 24 13 25 14 ZZW 1018,5 10
15.07.2018 02:00:00 16,8 14,7 24 13 22 12 ZZW 1018,8 10
15.07.2018 01:00:00 16,8 14,6 22 12 22 12 ZZW 1018,8 10
15.07.2018 00:00:00 16,8 14,4 24 13 25 14 ZZW 1018,9 10
14.07.2018 23:00:00 16,8 14,3 24 13 22 12 ZZW 1019,0 10
14.07.2018 22:00:00 16,8 14,2 21 11 22 12 ZZW 1019,0 10
14.07.2018 21:00:00 16,9 13,7 21 11 22 12 ZZW 1019,0 10
14.07.2018 20:00:00 16,8 13,5 22 12 22 12 ZW 1019,4 10
14.07.2018 19:00:00 16,8 13,4 22 12 22 12 ZW 1019,8 10
14.07.2018 18:00:00 16,9 13,5 22 12 22 12 ZW 1020,1 10
14.07.2018 17:00:00 16,7 13,9 21 11 18 10 ZW 1020,4 10
14.07.2018 16:00:00 16,4 13,3 16 9 18 10 WZW 1020,8 10
14.07.2018 15:00:00 16,0 13,0 11 6 14 8 ZW 1021,1 10
14.07.2018 14:00:00 15,7 12,5 15 8 14 8 ZW 1021,2 10
14.07.2018 13:00:00 15,5 12,1 15 8 14 8 WZW 1021,3 10
14.07.2018 12:00:00 15,3 11,8 15 8 14 8 W 1021,4 -
14.07.2018 11:00:00 15,2 11,7 13 7 14 8 W 1021,6 -
14.07.2018 10:00:00 15,2 11,6 15 8 18 10 W 1021,7 -
14.07.2018 09:00:00 15,1 11,4 16 9 18 10 WNW 1021,5 -
14.07.2018 08:00:00 15,3 10,4 13 7 14 8 WNW 1021,1 -
14.07.2018 07:00:00 15,1 11,4 13 7 11 6 WNW 1020,9 -
14.07.2018 06:00:00 15,1 10,4 11 6 14 8 NW 1020,8 -
14.07.2018 05:00:00 15,1 9,9 15 8 22 12 NNW 1020,9 -
14.07.2018 04:00:00 15,2 10,5 16 9 22 12 WNW 1021,1 -
14.07.2018 03:00:00 15,2 10,7 16 9 18 10 W 1021,3 -
14.07.2018 02:00:00 15,0 11,2 15 8 18 10 NW 1021,4 -
14.07.2018 01:00:00 15,1 11,4 18 10 18 10 NW 1021,5 -
14.07.2018 00:00:00 15,4 12,1 15 8 14 8 NW 1021,5 -
13.07.2018 23:00:00 15,4 12,1 13 7 14 8 WNW 1021,5 -
13.07.2018 22:00:00 15,5 12,1 13 7 14 8 WNW 1021,5 -
13.07.2018 21:00:00 15,4 11,8 11 6 14 8 WNW 1021,4 -

tt = temperatuur
td = dauwpunt
ff = windsnelheid
fx = windstoten
dd = windrichting
ppp = luchtdruk
vv = zicht

Weerstations in de omgeving